Regional Weather Roundup
Issued by NWS Charleston, SC

Current Version | Previous Version | Graphics & Text | Print | Product List | Glossary On
Versions: 1 2 3 4 5 6 7 8 9 10 11 12 13 14 15 16 17 18 19 20 21 22 23 24 25 26 27 28 29 30 31 32 33 34 35 36 37 38 39 40 41 42 43 44 45 46 47 48 49 50
000
ASUS42 KCHS 042127
RWRCHS

REGIONAL WEATHER ROUNDUP
NATIONAL WEATHER SERVICE CHARLESTON SC
500 PM EDT FRI SEP 04 2015

NOTE: "FAIR" INDICATES FEW OR NO CLOUDS BELOW 12,000 FEET WITH NO
SIGNIFICANT WEATHER AND/OR OBSTRUCTIONS TO VISIBILITY.

NOT ALL STATIONS ARE QUALITY CONTROLLED BY THE NATIONAL
WEATHER SERVICE. USE DATA WITH CAUTION...ESPECIALLY
DEWPOINT OBSERVATIONS.

SCZ027-030-031-034>040-042>050-042200-
...SOUTHEAST SOUTH CAROLINA...

CITY           SKY/WX    TMP DP  RH WIND       PRES   REMARKS
N CHARLESTON   PTSUNNY   77  68  73 S3        29.95R
WATERFRONT PRK   N/A     78  73  84 VRB3      29.92F
MOUNT PLEASANT FAIR      81  81 100 SE5       29.95R FOG     HX  91
JOHNS ISLAND   DRIZZLE   73  72  94 CALM      29.96R
PINOPOLIS        N/A     90  75  62 SE6       29.86F HX 100
MONCKS CORNER  FAIR      88  73  62 S7        29.95R HX  96
SUMMERVILLE    FAIR      84  70  61 S3        29.96R
BEAUFORT MCAS  PTSUNNY   79  73  82 S7        29.94S THUNDER FOG
BEAUFORT ARPT  FAIR      81  75  83 CALM      29.94S
HILTON HEAD IS PTSUNNY   84  79  84 S5        29.96R HX  96
WALTERBORO     MOCLDY    82  68  61 SE13G22   29.97R
ALLENDALE      FAIR      84  70  61 CALM      29.94R

...SOUTHERN MIDLANDS AND PEE DEE...

CITY           SKY/WX    TMP DP  RH WIND       PRES   REMARKS
GEORGETOWN     NOT AVBL
KINGSTREE      NOT AVBL
ORANGEBURG     FAIR      85  74  69 NE3       29.94S HX  92
BARNWELL       DRIZZLE   79  73  83 CALM      29.95S
AIKEN          FAIR      91  61  35 NE10      29.98S HX  91
MANNING        FAIR      91  64  40 CALM      29.92S HX  93
COLUMBIA       FAIR      94  63  35 E7        29.92F HX  95
SUMTER         FAIR      94  63  35 NE7       29.91S HX  95
FLORENCE       FAIR      92  67  43 E6        29.92F HX  95
MYRTLE BEACH   SUNNY     88  73  62 S7        29.95F HX  96
N MYRTLE BEACH FAIR      85  75  72 SE9       29.94F HX  93

$$

GAZ063-065-086>088-099>101-113>116-118-119-134>141-150-042200-
...SOUTHEAST GEORGIA...

CITY           SKY/WX    TMP DP  RH WIND       PRES   REMARKS
SAVANNAH ARPT  PTSUNNY   79  70  74 N7        29.95S
HUNTER AAF     FAIR      79  78  96 NW5       29.92S
FORT STEWART   FAIR      85  72  64 NE3       29.91F HX  91
STATESBORO     PTSUNNY   81  73  76 SE6       29.96R THUNDER
SYLVANIA       NOT AVBL
CLAXTON        NOT AVBL

...CSRA...CENTRAL AND FAR SOUTHEAST GEORGIA...

CITY           SKY/WX    TMP DP  RH WIND       PRES   REMARKS
THOMSON        FAIR      93  73  50 NE6       29.99R HX 102
AUGUSTA-BUSH   FAIR      95  67  39 NE7       29.91S HX  99
AUGUSTA-DANIEL FAIR      95  66  38 NE9       29.94S HX  98
SWAINSBORO     LGT RAIN  73  70  88 NW6       29.95F
VIDALIA        FAIR      88  72  58 NE6       29.94S HX  94
EASTMAN        FAIR      94  68  41 NE6       29.95S HX  98
HAZLEHURST     FAIR      94  70  44 CALM      29.91S HX 100
ALMA           PTSUNNY   90  73  57 N6        29.91S HX  98
WAYCROSS       FAIR      94  77  58 W5        29.91S THUNDER HX 108
JESUP          FOG       79  75  89 SW5       29.93F VSB 1
BAXLEY         FAIR      93  70  46 NW6       29.91S HX  99
BRUNSWICK      FAIR      82  70  65 CALM      29.93F
SAINT SIMONS   FAIR      86  76  71 E8        29.92F HX  96

$$

SCZ027-028-034-036>038-045-046-048>050-GAZ119-141-042200-
...LAKE AND SUPPLEMENTAL COASTAL OBSERVATIONS...

STATION/POSITION TIME  TEMP    WIND        PRES    WAVE   SWELL
                       AIR SEA DIR/SP/G            HT/PER HT/PER/DIR
                 (UTC) (F)     (DEG/KT/KT) (MB)    (FT/S) (FT/S/D)
UPR LAKE MARION  NOT AVBL
WINYAH BAY       2045   83     120/  6     1013.0F
LAKE MURRAY      2000   92     170/  1/  5 1012.9F
ACE BASIN NERRS  NOT AVBL
FORT PULASKI     2100   82 84  330/  5/  5 1014.5R
SAPELO ISLAND    2100   80      10/  4     1013.0F

$$

ANZ835-935-AMZ111-154-330-350-352-354-370-450-454-472-042200-
...C-MAN AND BUOY OBSERVATIONS...

STATION/POSITION TIME  TEMP    WIND        PRES    WAVE   SWELL
                       AIR SEA DIR/SP/G            HT/PER HT/PER/DIR
                 (UTC) (F)     (DEG/KT/KT) (MB)    (FT/S) (FT/S/D)
BUOY 41004       2050   83 85   80/  4/  6 1013.6R   1/ 7   2/ 7
BUOY 41008       2050   84 86  100/  2/  2 1013.8R   1
FOLLY BEACH CMAN 2100   80     250/  2/  4 1014.3R
CAPERS NEARSHORE 2008   83     110/  8/ 10 1013.8F
FRIPP NEARSHORE  2000   86     150/  8/  8 1013.1F


STATION/POSITION TIME  TEMP    WIND        PRES    WAVE   SWELL
                       AIR SEA DIR/SP/G            HT/PER HT/PER/DIR
                 (UTC) (F)     (DEG/KT/KT) (MB)    (FT/S) (FT/S/D)
5E ST. MARYS GA  2021      87                N/A     1/13
FRYING PAN BUOY  2050   83 83   70/  6/  8 1014.3F   1/ 7   2/170/ 7
BUOY 41025       2050   83 85   20/  6/  8 1013.8F   1/12   2/ 50/12
CAPE LOOKOUT NC  2100   83     160/  5/  5 1013.4F
BUOY 41002       2050   83 85  360/  6/  8 1013.0S   1/11   2/ 20/11
BUOY 41010       2020   83 86  360/  6/  8 1013.5F
ST AUGUSTINE FL  2100   83 86   90/  6/  7 1014.4F


$$



USA.gov is the U.S. government's official web portal to all federal, state and local government web resources and services.